Overview Statistics Trail Chart Weather Telemetry Raw packets
 

This is the latest recevied weather packets stored in our database for station/object KC3UTO. If no packets are shown the sender has not sent any weather packets the latest 10 day(s).

<< 1 2 3 4 5 6 >>
Time Temp. Humidity Pressure Rain* Wind** Luminosity Snow
1788562550 27.22° C 70% 1010.6 hPa 0 mm - 17 W/m² -
1788562245 27.22° C 70% 1010.6 hPa 0 mm - 21 W/m² -
1788561940 27.22° C 69% 1010.5 hPa 0 mm - 21 W/m² -
1788561640 27.78° C 69% 1010.7 hPa 0 mm - 21 W/m² -
1788561339 27.78° C 69% 1010.7 hPa 0 mm - 25 W/m² -
1788561035 27.78° C 68% 1010.9 hPa 0 mm - 40 W/m² -
1788560730 27.78° C 68% 1010.9 hPa 0 mm - 55 W/m² -
1788560426 27.78° C 68% 1010.9 hPa 0 mm - 56 W/m² -
1788560120 27.78° C 67% 1010.9 hPa 0 mm - 82 W/m² -
1788559815 27.78° C 67% 1010.9 hPa 0 mm - 60 W/m² -
1788559514 27.78° C 67% 1011 hPa 0 mm - 34 W/m² -
1788559210 27.78° C 68% 1010.8 hPa 0 mm - 43 W/m² -
1788558905 27.78° C 67% 1011 hPa 0 mm - 69 W/m² -
1788558600 27.78° C 67% 1011.1 hPa 0 mm - 40 W/m² -
1788558296 27.78° C 67% 1011 hPa 0 mm - 54 W/m² -
1788557991 27.78° C 66% 1011.1 hPa 0 mm - 83 W/m² -
1788557689 28.33° C 64% 1010.9 hPa 0 mm - 83 W/m² -
1788557386 28.33° C 63% 1011 hPa 0 mm - 108 W/m² -
1788557085 28.33° C 63% 1011 hPa 0 mm - 113 W/m² -
1788556780 28.33° C 63% 1010.8 hPa 0 mm - 117 W/m² -
1788556475 28.33° C 63% 1011 hPa 0 mm - 142 W/m² -
1788556171 28.89° C 62% 1010.9 hPa 0 mm - 141 W/m² -
1788555869 28.33° C 62% 1010.9 hPa 0 mm - 133 W/m² -
1788555566 28.89° C 61% 1010.6 hPa 0 mm - 138 W/m² -
1788555261 28.89° C 62% 1010.7 hPa 0 mm - 116 W/m² -

* Rain latest hour (hover to see other rain measurements)
** Current wind speed in m/s (hover to see current wind gust speed)